sat.trackr.live / text

‹ back to catalog

STARLINK-1640

NORAD 46173 · 2020-057BJ

PAYLOAD ACTIVE UNKNOWN

§ Identity

Operator
Country
US
Launch date
2020-08-18
Launch site
AFETR
Launch vehicle
Mass (kg)
RCS (m²)

Purposes: comms

External: N2YO · Heavens-Above · Gunter

§ Orbital elements

Epoch: 2026-09-02T02:29:53.901312Z

Period
87.61 min
Inclination
53.0142°
Eccentricity
0.0006994
Mean motion
16.43724425 rev/d
Perigee alt
151.3 km
Apogee alt
160.5 km
Semi-major
6,534.1 km
B*
4.2184e-4
RAAN
139.9303°
Arg perigee
252.4327°
Mean anomaly
107.5956°
Rev number
33,411

§ Raw data

STARLINK-16401 46173U 20057BJ  26245.10409608  .11314874  12431-4  42184-3 0  99982 46173  53.0142 139.9303 0006994 252.4327 107.5956 16.43724425334112

JSON: /api/v1/satellites/46173 · /tle

For live sub-satellite position, see the globe view (requires WebGL).

§ Visibility from observer

Set your observer location to see the next 7 days of passes ≥ 10°. The values pass through the URL so the page stays shareable.

No JS? Fill the form by hand. The geolocation button needs JavaScript.